STARLINK-1400, 45700

Orbit data source: Space-Track

STARLINK-1400, 45700 is a payload satellite owned by SpaceX/Seattle (US) in LEO that was launched on Thu, 04 Jun 2020 UTC via an FALCON 9 launch vehicle from the Air Force Eastern Test Range (AFETR). Payload-class satellites include a variety of spacecraft equipped with specific instruments for various scientific and technological missions. These include communications satellites like Starlink; space stations such as the ISS; scientific satellites like the Hubble; Earth observation satellites from companies like Planet Labs, Umbra, and HawkEye 360; GPS; miniature CubeSats for education and research; and military/defense satellites.

Loading next visibility...
Identifier
45700, 2020-035AV
Orbit
LEO
Country
Flag of USUS
Related business
Manufacturer
SpaceX/Seattle
Mission
Operational Commercial Communications
Bus & Motor
STARLINK, Unknown motor
Mass
260 kg wet, ~248 kg dry
Launch date (UTC)
2020-06-04 (5 years ago)
Launch vehicle
FALCON 9
Launch site
Air Force Eastern Test Range (AFETR)
Object type
Payload
Rocket body
Debris
Shape & HBR
Box + 1 Pan, 4.4 m
Radar Cross Section
13.562 m², Large (>1 m²)

Expand to show TLE details & history
Last TLE update: 1 day ago

TLE from 1 day ago
0 STARLINK-1400
1 45700U 20035AV  25260.94405591 -.00000490  00000-0 -13981-4 0  9999
2 45700  53.0543  92.1041 0001391  98.2415 261.8731 15.06385063293119
Epoch: 2025-09-17T22:39Z
TLE epoch observation values (Epoch: 2025-09-17T22:39:26.43Z)
Latitude
-0.00009°
Longitude
115.13116°
Altitude
548.273 km
Speed
7.589 km/s
True Right ascension
06h 08m 24s
True Declination
0° 00' 00"
Sunlit
Object was in daylight at epoch
Visualization orbit readout
Latitude
Unknown
Longitude
Unknown
Altitude
Unknown
Speed
Unknown
Apparent Right ascension
Unknown
Apparent Declination
Unknown
Sunlit
N/A
Visualization observer readout
Local Sidereal Time
19:55:13
Azimuth
Unknown
Elevation
Unknown
Doppler factor
Unknown
Orbital elements
Apogee altitude
548.491 km
Perigee altitude
546.565 km
Semi-major axis
6,925.665 km
Eccentricity
0.00014
Inclination
53.0543°
RAAN
92.1041°
Arg. of periapsis
98.2415°
True anomaly
261.85732°
Mean anomaly
261.8731°
Eccentric anomaly
261.86521°
Mean motion
3.76575 °/min
Orbital period
95.6 mins
BSTAR
-0.000013981
Loading maneuver chart data...
Computing Atmospheric mass density...

Documentation

Showing up to 5 results
|